Change the Weather History Date:

Monday, October 8, 2012

  Actual Average Record
Temperature  
Mean Temperature 80 °F -  
Max Temperature 87 °F 85 °F 89 °F (1997)
Min Temperature 74 °F 75 °F 74 °F (2012)
Cooling Degree Days 16    
Growing Degree Days 30 (Base 50)    
Moisture  
Dew Point 73 °F    
Average Humidity 77    
Maximum Humidity 94    
Minimum Humidity 55    
Precipitation  
Precipitation 0.00 in - - ()
Sea Level Pressure  
Sea Level Pressure 29.89 in    
Wind  
Wind Speed 8 mph ()    
Max Wind Speed 16 mph    
Max Gust Speed -    
Visibility 7.1 miles    
Events      
Averages and records for this station are not official NWS values.
T = Trace of Precipitation, MM = Missing Value Source: Averaged Metar Reports

Daily Weather History Graph

Daily Weather History Graph

Search for Another Location

Airport or City:

Trip Planner

Search our weather history database for the weather conditions in past years. The results will help you decide how hot, cold, wet, or windy it might be!

Date:

Astronomy

Oct. 08, 2012 Rise Set
Actual Time 5:47 AM GMT 5:48 PM GMT
Civil Twilight 5:26 AM GMT 6:09 PM GMT
Nautical Twilight 5:02 AM GMT 6:34 PM GMT
Astronomical Twilight 4:37 AM GMT 6:58 PM GMT
Moon No Moon Rise 12:12 PM GMT (10/8)
Length of Visible Light 12h 43m
Length of Day
12h 01m
Waning Gibbous, 48% of the Moon is Illuminated
Oct 8
Waning Gibbous
Oct 15
New
Oct 22
First Quarter
Oct 29
Full
Nov 7
Last Quarter

Hourly Weather History & Observations

Time (GMT) Temp. Heat Index Dew Point Humidity Pressure Visibility Wind Dir Wind Speed Gust Speed Precip Events Conditions
12:00 AM 79 °F - 73 °F 78% 29.92 in 9 mi WSW 2.3 mph - -   Mostly Cloudy
12:56 AM 80.6 °F 85.4 °F 73.4 °F 79% 29.89 in 6.2 mi West 8.1 mph - N/A   Mostly Cloudy
1:55 AM 75.2 °F - 73.4 °F 94% 29.86 in 6.2 mi West 8.1 mph - N/A   Unknown
3:00 AM 78 °F - 72 °F 77% 29.90 in 9 mi Calm Calm - -   Mostly Cloudy
3:01 AM 75.2 °F - 73.4 °F 94% 29.86 in 6.2 mi West 8.1 mph - N/A   Scattered Clouds
3:56 AM 75.2 °F - 73.4 °F 94% 29.86 in 6.2 mi WSW 5.8 mph - N/A   Partly Cloudy
4:58 AM 75.2 °F - 73.4 °F 94% 29.86 in 6.2 mi West 9.2 mph - N/A   Scattered Clouds
5:57 AM 75.2 °F - 73.4 °F 94% 29.89 in 6.2 mi West 9.2 mph - N/A   Mostly Cloudy
6:00 AM 76 °F - 73 °F 88% 29.93 in 9 mi WSW 9.2 mph - -   Partly Cloudy
6:57 AM 75.2 °F - 73.4 °F 94% 29.92 in 6.2 mi West 9.2 mph - N/A   Overcast
7:56 AM 78.8 °F - 73.4 °F 83% 29.92 in 6.2 mi West 11.5 mph - N/A   Scattered Clouds
8:55 AM 80.6 °F 85.4 °F 73.4 °F 79% 29.95 in 6.2 mi SW 11.5 mph - N/A   Partly Cloudy
9:00 AM 82 °F - 73 °F 68% 29.96 in 9 mi WSW 11.5 mph - -   Partly Cloudy
10:00 AM 82.4 °F 87.2 °F 71.6 °F 70% 29.95 in 6.2 mi SW 13.8 mph - N/A   Scattered Clouds
11:00 AM 84.2 °F 90.9 °F 73.4 °F 70% 29.92 in 6.2 mi SW 13.8 mph - N/A   Scattered Clouds
11:30 AM 84.2 °F 90.9 °F 73.4 °F 70% 29.92 in 6.2 mi WSW 11.5 mph - N/A   Scattered Clouds
11:57 AM 86.0 °F 91.8 °F 71.6 °F 62% 29.89 in 6.2 mi SW 9.2 mph - N/A   Scattered Clouds
12:00 PM 86 °F - 72 °F 56% 29.91 in 11 mi SW 13.8 mph - -   Mostly Cloudy
12:57 PM 86.0 °F 93.4 °F 73.4 °F 66% 29.86 in 6.2 mi South 12.7 mph - N/A   Mostly Cloudy
1:57 PM 84.2 °F 90.9 °F 73.4 °F 70% 29.86 in - South 12.7 mph - N/A   Clear
2:30 PM 84.2 °F 89.6 °F 71.6 °F 66% 29.83 in - South 15.0 mph - N/A   Clear
3:00 PM 85 °F - 71 °F 55% 29.85 in 11 mi SW 13.8 mph - -   Partly Cloudy
3:00 PM 84.2 °F 90.9 °F 73.4 °F 70% 29.83 in 6.2 mi SSW 16.1 mph - N/A   Partly Cloudy
4:01 PM 82.4 °F 87.2 °F 71.6 °F 70% 29.83 in 6.2 mi South 16.1 mph - N/A   Partly Cloudy
5:00 PM 80.6 °F 85.4 °F 73.4 °F 79% 29.86 in 6.2 mi South 15.0 mph - N/A   Partly Cloudy
5:57 PM 80.6 °F 85.4 °F 73.4 °F 79% 29.86 in - SSW 11.5 mph - N/A   Clear
6:00 PM 82 °F - 72 °F 65% 29.89 in 11 mi SSW 11.5 mph - -   Partly Cloudy
7:00 PM 78.8 °F - 73.4 °F 83% 29.89 in 6.2 mi South 12.7 mph - N/A   Mostly Cloudy
7:56 PM 78.8 °F - 73.4 °F 83% 29.89 in 6.2 mi SSW 10.4 mph - N/A   Partly Cloudy
9:00 PM 78.8 °F - 73.4 °F 83% 29.89 in 6.2 mi SSW 10.4 mph - N/A   Partly Cloudy
10:00 PM 78.8 °F - 73.4 °F 83% 29.89 in 6.2 mi SSW 9.2 mph - N/A   Mostly Cloudy
11:00 PM 78.8 °F - 73.4 °F 83% 29.89 in 6.2 mi SW 10.4 mph - N/A   Mostly Cloudy